STARLINK-4509, 53404

Orbit data source: Space-Track

STARLINK-4509, 53404 is a payload satellite owned by SpaceX/Seattle (US) in LEO that was launched on Wed, 10 Aug 2022 UTC via an FALCON 9 launch vehicle from the Air Force Eastern Test Range (AFETR). Payload-class satellites include a variety of spacecraft equipped with specific instruments for various scientific and technological missions. These include communications satellites like Starlink; space stations such as the ISS; scientific satellites like the Hubble; Earth observation satellites from companies like Planet Labs, Umbra, and HawkEye 360; GPS; miniature CubeSats for education and research; and military/defense satellites.

Loading next visibility...
Identifier
53404, 2022-097S
Orbit
LEO
Country
Flag of USUS
Related business
Manufacturer
SpaceX/Seattle
Mission
Operational Commercial Communications
Bus & Motor
STARLINK, Unknown motor
Mass
297 kg wet, ~275 kg dry
Launch date (UTC)
2022-08-10 (4 years ago)
Launch vehicle
FALCON 9
Launch site
Air Force Eastern Test Range (AFETR)
Object type
Payload
Rocket body
Debris
Shape & HBR
Box + 1 Pan, 10.1 m
Radar Cross Section
13.562 m², Large (>1 m²)

Expand to show TLE details & history
Last TLE update: 20 hours ago

TLE from 20 hours ago
0 STARLINK-4509
1 53404U 22097S   26144.22793444  .00000490  00000-0  48866-4 0  9997
2 53404  53.2154 134.9493 0001288  76.2847 283.8289 15.08841360210058
Epoch: 2026-05-24T05:28Z
TLE epoch observation values (Epoch: 2026-05-24T05:28:13.535Z)
Latitude
0.00001°
Longitude
171.05982°
Altitude
540.424 km
Speed
7.593 km/s
True Right ascension
08h 59m 47s
True Declination
0° 00' 00"
Sunlit
Object was in daylight at epoch
Visualization orbit readout
Latitude
Unknown
Longitude
Unknown
Altitude
Unknown
Speed
Unknown
Apparent Right ascension
Unknown
Apparent Declination
Unknown
Sunlit
N/A
Visualization observer readout
Local Sidereal Time
10:25:31
Azimuth
Unknown
Elevation
Unknown
Doppler factor
Unknown
Orbital elements
Apogee altitude
540.876 km
Perigee altitude
539.093 km
Semi-major axis
6,918.121 km
Eccentricity
0.00013
Inclination
53.2154°
RAAN
134.9493°
Arg. of periapsis
76.2847°
True anomaly
283.81457°
Mean anomaly
283.8289°
Eccentric anomaly
283.82173°
Mean motion
3.77191 °/min
Orbital period
95.44 mins
BSTAR
0.000048866
Loading maneuver chart data...
Computing Atmospheric mass density...
Loading historical data...
Loading historical data...
Loading historical data...
Loading historical data...
Loading historical data...
Loading historical data...
Loading historical data...

Documentation

Showing up to 5 results
|